GW0796 Weather Reports


time (UTC)temp
F
wind
direction
speed
knots
gust
knots
rain 1hr
in
rain 24hr
in
rain mn
in
humidity
%
barometer
mb
20260507011559 47 360 0.0 2.6 0.00 0.00 0.00 43 1013.6
20260507010058 49 354 0.9 6.1 0.00 0.00 0.00 41 1013.5
20260507004600 49 311 2.6 7.0 0.00 0.00 0.00 40 1013.4
20260507003100 49 43 4.3 11.3 0.00 0.00 0.00 39 1013.5
20260507001558 50 310 2.6 8.7 0.00 0.00 0.00 40 1013.6
20260507000058 50 299 4.3 7.8 0.00 0.00 0.00 39 1013.7
20260506234603 50 311 2.6 6.1 0.00 0.00 0.00 40 1013.8
20260506233104 50 307 5.2 7.8 0.00 0.00 0.00 40 1013.8
20260506231609 50 304 3.5 7.0 0.00 0.00 0.00 39 1013.9
20260506230058 50 282 4.3 9.6 0.00 0.00 0.00 39 1014.0
20260506224608 50 302 3.5 9.6 0.00 0.00 0.00 42 1014.0
20260506223057 50 295 5.2 8.7 0.00 0.00 0.00 39 1014.3
20260506221601 49 305 3.5 10.4 0.00 0.00 0.00 40 1014.4
20260506214610 50 311 4.3 8.7 0.00 0.00 0.00 40 1014.7
20260506213100 49 286 6.1 10.4 0.00 0.00 0.00 40 1014.9
20260506211557 49 320 4.3 10.4 0.00 0.00 0.00 39 1015.0
20260506210100 50 293 5.2 13.0 0.00 0.00 0.00 42 1015.1
20260506204617 50 292 7.0 13.9 0.00 0.00 0.00 41 1015.3
20260506203057 50 302 6.1 12.2 0.00 0.00 0.00 41 1015.4
20260506201600 49 285 6.1 11.3 0.00 0.00 0.00 40 1015.6
20260506200058 50 285 6.1 13.9 0.00 0.00 0.00 43 1015.6
20260506194605 48 293 5.2 10.4 0.00 0.00 0.00 46 1015.7
20260506193101 48 309 5.2 10.4 0.00 0.00 0.00 44 1016.0
20260506191556 48 302 7.0 11.3 0.00 0.00 0.00 43 1016.0
20260506190100 47 309 5.2 12.2 0.00 0.00 0.00 44 1016.1
20260506184557 46 335 8.7 16.5 0.00 0.00 0.00 44 1016.2
20260506183109 47 314 4.3 9.6 0.00 0.00 0.00 44 1016.2
20260506181602 46 341 5.2 14.8 0.00 0.00 0.00 47 1016.4
20260506174559 45 278 6.1 13.0 0.00 0.00 0.00 47 1016.7
20260506173100 44 331 7.0 13.9 0.00 0.00 0.00 47 1016.8
20260506171605 44 311 9.6 15.6 0.00 0.00 0.00 47 1016.8
20260506170107 44 297 5.2 14.8 0.00 0.00 0.00 48 1017.0
20260506164603 43 295 6.1 13.9 0.00 0.00 0.00 49 1016.8
20260506163106 43 304 7.0 14.8 0.00 0.00 0.00 49 1017.1
20260506161607 42 297 5.2 11.3 0.00 0.00 0.00 48 1017.2
20260506160058 42 309 5.2 15.6 0.00 0.00 0.00 52 1017.2
20260506154613 42 315 7.0 14.8 0.00 0.00 0.00 51 1017.2
20260506153057 41 309 6.1 12.2 0.00 0.00 0.00 54 1017.3
20260506151558 41 287 4.3 9.6 0.00 0.00 0.00 57 1017.2
20260506150059 40 20 4.3 9.6 0.00 0.00 0.00 55 1017.3
20260506144604 40 323 4.3 13.9 0.00 0.00 0.00 57 1017.2
20260506143059 39 318 4.3 9.6 0.00 0.00 0.00 59 1017.2
20260506141604 39 324 3.5 11.3 0.00 0.00 0.00 60 1017.1
20260506140127 38 331 5.2 9.6 0.00 0.00 0.00 58 1017.2
20260506134600 37 319 3.5 6.1 0.00 0.00 0.00 66 1017.1
20260506133110 37 297 2.6 7.0 0.00 0.00 0.00 68 1017.1
20260506131601 36 302 3.5 6.1 0.00 0.00 0.00 70 1017.1
20260506130100 35 0 0.9 3.5 0.00 0.00 0.00 74 1016.9
20260506124601 33 269 0.0 0.9 0.00 0.00 0.00 78 1016.8
20260506123101 32 273 0.0 0.9 0.00 0.00 0.00 79 1016.7
20260506121558 32 281 0.0 0.9 0.00 0.00 0.00 79 1016.5
20260506120104 31 0 0.0 0.0 0.00 0.00 0.00 80 1016.3
20260506114609 30 0 0.0 0.0 0.00 0.00 0.00 79 1016.1
20260506113102 30 0 0.0 0.0 0.00 0.00 0.00 80 1015.9
20260506111607 30 0 0.0 0.9 0.00 0.00 0.00 79 1015.8
20260506110107 30 0 0.0 0.0 0.00 0.00 0.00 78 1015.7
20260506104601 30 0 0.0 0.0 0.00 0.00 0.00 77 1015.5
20260506103102 31 0 0.0 0.0 0.00 0.00 0.00 77 1015.5
20260506101559 31 0 0.0 0.0 0.00 0.00 0.00 76 1015.4
20260506100108 31 0 0.0 0.0 0.00 0.00 0.00 76 1015.3
20260506094603 31 0 0.0 0.9 0.00 0.00 0.00 76 1015.2
20260506093104 32 0 0.0 0.0 0.00 0.00 0.00 73 1015.4
20260506091609 34 0 0.0 0.0 0.00 0.00 0.00 71 1015.5
20260506090059 34 0 0.0 1.7 0.00 0.00 0.00 71 1015.7
20260506084603 34 310 0.0 0.9 0.00 0.00 0.00 72 1015.3
20260506083101 34 0 0.0 1.7 0.00 0.00 0.00 72 1015.0
20260506081601 33 0 0.0 0.9 0.00 0.00 0.00 73 1014.8
20260506073101 33 0 0.0 0.9 0.00 0.00 0.00 69 1015.2
20260506071558 33 0 0.0 1.7 0.00 0.00 0.00 70 1015.2
20260506070103 33 0 0.0 0.9 0.00 0.00 0.00 69 1015.0
20260506061613 35 0 0.0 0.0 0.00 0.00 0.00 71 1015.0
20260506044635 32 0 0.0 0.0 0.00 0.00 0.00 68 1014.8
20260506043058 32 0 0.0 0.0 0.00 0.00 0.00 67 1014.6
20260506041557 32 0 0.0 0.0 0.00 0.00 0.00 66 1014.7
20260506040059 33 0 0.0 0.9 0.00 0.00 0.00 63 1014.6
20260506034556 34 328 0.0 0.9 0.00 0.00 0.00 62 1014.6
20260506033056 34 315 0.0 0.9 0.00 0.00 0.00 61 1014.4
20260506031557 34 0 0.0 0.0 0.00 0.00 0.00 61 1014.1
20260506030059 35 0 0.0 0.0 0.00 0.00 0.00 60 1014.2
20260506024600 36 0 0.0 0.0 0.00 0.00 0.00 58 1013.9
20260506023101 37 0 0.0 0.9 0.00 0.00 0.00 55 1013.6
20260506021608 38 0 0.0 2.6 0.00 0.00 0.00 53 1013.5
20260506020056 39 13 0.9 3.5 0.00 0.00 0.00 52 1012.9
20260506014557 40 316 1.7 5.2 0.00 0.00 0.00 50 1012.8
20260506013059 42 326 3.5 7.8 0.00 0.00 0.00 48 1012.7